Nueva Hesperides International Airport

Jump to: basic info | weather | frequencies | runways | comments

Related pages: nearby airports | nearby navaids | notams | map

Basic information (top)

Codes: STY SUSO
Location: lon -31.438499, lat -57.985298, elev 187 ft / 57 m msl
Status: medium_airport

Weather (top)

Current conditions (rec'd 2014/10/31 21:00Z):

SUSO 312100Z 06006KT 9999 SCT020 BKN060 23/20 Q1011

Airport forecast (rec'd 2014/10/31 12:39Z):

TAF SUSO 311135Z 3112/0112 09010KT 9999 BKN015 BKN070 TX27/0119Z TN17/0109Z PROB30 
      TEMPO 3112/0112 5000 TSRA BKN015 OVC090

Frequencies (top)

Verify before use: may be inaccurate or out of date.

RDO: 286 MHz (SALTO RDO)
TWR: 118.8 MHz (SALTO TWR)

Runways (top)

05/23: 5,210 x 148 ft (1,588 x 45 m) — paved — lighted

13/31: 2,461 x 164 ft (750 x 50 m) — grass — not lighted

Latest comments (top)

No comments yet for Nueva Hesperides International Airport

More... (top)

See also NOTAMs and nearby airports and navaids, or visit the Nueva Hesperides International Airport page at the main OurAirports website..